Location: Newark
(55.7083°N, 13.1992°E)
Time: 00:57:59
(UTC+00:00)

ISS - Pass Details

Date: 26 January 2020
Orbit: 415 x 422 km, 51.6° (Epoch: 26 February)

Event Time Altitude Azimuth Distance (km) Brightness Sun altitude
Rises 18:59:03 0° 260° (W) 2,379 1.1 -29.3°
Reaches altitude 10° 19:01:13 10° 253° (WSW) 1,513 -0.2 -29.6°
Enters shadow 19:01:43 13° 250° (WSW) 1,319 -0.6 -29.6°
